Broken Bow, NE

2:45 PM CDT on October 22, 2017 (GMT -0500)
Broken Bow Municipal

Weather History for KBBW - February, 2013

Change the Weather History Date:

Monday, February 4, 2013

  Actual Average Record
Temperature  
Mean Temperature 38 °F 26 °F  
Max Temperature 50 °F 38 °F 66 °F (1946)
Min Temperature 25 °F 13 °F -22 °F (1996)
Degree Days  
Heating Degree Days 27 39  
Month to date heating degree days 120 156  
Cooling Degree Days 0 0  
Month to date cooling degree days 0 0  
Year to date cooling degree days 0 0  
Moisture  
Dew Point 25 °F    
Average Humidity 66    
Maximum Humidity 92    
Minimum Humidity 39    
Precipitation  
Precipitation 0.00 in 0.02 in 0.50 in (1997)
Sea Level Pressure  
Sea Level Pressure 29.92 in    
Wind  
Wind Speed 8 mph (North)    
Max Wind Speed 18 mph    
Max Gust Speed -    
Visibility 9 miles    
Events      
T = Trace of Precipitation, MM = Missing Value Source: NWS Daily Summary

Daily Weather History Graph

Daily Weather History Graph

Search for Another Location

Airport or City:

Trip Planner

Search our weather history database for the weather conditions in past years. The results will help you decide how hot, cold, wet, or windy it might be!

Date:

Astronomy

Feb. 04, 2013 Rise Set
Actual Time 7:46 AM CST 5:58 PM CST
Civil Twilight 7:17 AM CST 6:27 PM CST
Nautical Twilight 6:44 AM CST 7:00 PM CST
Astronomical Twilight 6:12 AM CST 7:33 PM CST
Moon 2:25 AM CST (2/4) 12:22 PM CST (2/4)
Length of Visible Light 11h 10m
Length of Day
10h 12m
Last Quarter, 37% of the Moon is Illuminated
Feb 4
Last Quarter
Feb 10
New
Feb 17
First Quarter
Feb 25
Full
Mar 4
Last Quarter

Hourly Weather History & Observations

Time (CST) Temp. Windchill Dew Point Humidity Pressure Visibility Wind Dir Wind Speed Gust Speed Precip Events Conditions
12:53 AM 37.9 °F 28.5 °F 23.0 °F 55% 29.87 in 10.0 mi NNW 17.3 mph - N/A   Clear
1:53 AM 36.0 °F 26.0 °F 23.0 °F 59% 29.88 in 10.0 mi North 17.3 mph - N/A   Clear
2:53 AM 35.1 °F 24.5 °F 24.1 °F 64% 29.90 in 10.0 mi North 18.4 mph - N/A   Clear
4:53 AM 32.0 °F 23.6 °F 24.1 °F 73% 29.94 in 10.0 mi NNW 10.4 mph - N/A   Clear
5:53 AM 28.0 °F 20.0 °F 23.0 °F 81% 29.97 in 10.0 mi NNW 8.1 mph - N/A   Clear
6:53 AM 28.0 °F 20.8 °F 23.0 °F 81% 29.98 in 10.0 mi NNW 6.9 mph - N/A   Clear
7:53 AM 27.0 °F 21.6 °F 23.0 °F 85% 29.99 in 10.0 mi NW 4.6 mph - N/A   Clear
8:53 AM 30.0 °F 25.2 °F 24.1 °F 79% 30.01 in 10.0 mi North 4.6 mph - N/A   Clear
9:46 AM 26.6 °F 20.0 °F 24.8 °F 93% 29.95 in 9.0 mi NNE 5.8 mph - N/A   Scattered Clouds
9:53 AM 26.1 °F 19.4 °F 25.0 °F 96% 30.02 in 5.0 mi NE 5.8 mph - N/A   Mostly Cloudy
9:59 AM 26.6 °F 20.0 °F 24.8 °F 93% 29.95 in 1.8 mi NE 5.8 mph - N/A   Mostly Cloudy
10:16 AM 26.6 °F 21.2 °F 24.8 °F 93% 29.95 in 3.0 mi NNE 4.6 mph - N/A   Overcast
10:53 AM 28.0 °F 24.2 °F 25.0 °F 88% 30.02 in 10.0 mi NNE 3.5 mph - N/A   Overcast
11:13 AM 30.2 °F - 26.6 °F 86% 29.94 in 10.0 mi Calm Calm - N/A   Overcast
11:32 AM 32.0 °F - 26.6 °F 80% 29.94 in 10.0 mi Calm Calm - N/A   Scattered Clouds
11:53 AM 32.0 °F 28.7 °F 26.1 °F 79% 29.99 in 10.0 mi South 3.5 mph - N/A   Clear
12:53 PM 37.0 °F - 26.1 °F 65% 29.96 in 10.0 mi Calm Calm - N/A   Clear
1:53 PM 42.1 °F 37.1 °F 27.0 °F 55% 29.90 in 10.0 mi ESE 8.1 mph - N/A   Clear
2:53 PM 46.0 °F 41.9 °F 26.1 °F 46% 29.87 in 10.0 mi SSE 8.1 mph - N/A   Scattered Clouds
3:53 PM 46.9 °F - 26.1 °F 44% 29.85 in 10.0 mi SSE 12.7 mph - N/A   Clear
4:53 PM 48.9 °F - 24.1 °F 38% 29.83 in 10.0 mi South 12.7 mph - N/A   Scattered Clouds
5:53 PM 42.8 °F 38.0 °F 24.8 °F 49% 29.81 in 10.0 mi SSE 8.1 mph - N/A   Scattered Clouds
6:53 PM 36.0 °F 30.3 °F 26.1 °F 67% 29.88 in 10.0 mi SE 6.9 mph - N/A   Overcast
7:53 PM 36.0 °F 30.3 °F 26.1 °F 67% 29.87 in 10.0 mi South 6.9 mph - N/A   Mostly Cloudy
8:53 PM 37.0 °F 31.0 °F 26.1 °F 65% 29.88 in 10.0 mi SW 8.1 mph - N/A   Overcast
9:53 PM 33.1 °F 26.9 °F 25.0 °F 72% 29.90 in 10.0 mi WSW 6.9 mph - N/A   Clear
10:53 PM 33.1 °F - 25.0 °F 72% 29.90 in 10.0 mi Calm Calm - N/A   Clear
11:53 PM 34.0 °F 31.0 °F 24.1 °F 67% 29.88 in 10.0 mi Variable 3.5 mph - N/A   Clear